Location: Woodhurst
(52.3667°N, 0.0667°W)
Time: 20:19:01
(UTC+00:00)

SeaSat 1 - Pass Details

Date: 19 May 2025
Orbit: 738 x 740 km, 108.0° (Epoch: 18 June)

Event Time Altitude Azimuth Distance (km) Brightness Sun altitude
Exits shadow 21:36:43 16° 143° (SE) 1,875 3.8 -11.5°
Maximum altitude 21:40:41 82° 57° (ENE) 754 2.5 -11.8°
Drops below altitude 10° 21:45:36 10° 330° (NNW) 2,261 6.5 -12.2°
Sets 21:47:52 0° 330° (NNW) 3,189 7.9 -12.4°
